Home > Time Zones > World Clock > Weather > Spain > Ceuta > Past weeks

Flag for Spain Weather past 2 weeks in Ceuta, Ceuta, Spain

Now
77 °F

Sunny.


Feels Like: 79 °F
Forecast: 72 / 80 °F
Wind: 5 mph from East

Location: Gibraltar Airport

Current Time: Aug 5, 2015 at 11:28:44 AM

Latest Report: Aug 5, 2015 at 10:50 AM


Visibility: 10 mi

Pressure: 29.95 "Hg

Humidity: 69%

Dew point: 66 °F

Location of CeutaLocation

Historic Weather in Ceuta — Graph

°F

Ceuta temperature yesterday

Maximum temperature yesterday: 84 °F (at 4:50 PM)
Minimum temperature yesterday: 70 °F (at 6:50 AM)
Average temperature yesterday: 77 °F

Past Weeks' High & Low Weather Summary

 TemperatureHumidityPressure
High99 °F (Jul 22, 2:50 PM)100% (Jul 22, 12:50 AM)30.04 "Hg (Jul 22, 12:50 AM)
Low68 °F (Aug 1, 9:50 PM)22% (Aug 1, 6:50 PM)29.77 "Hg (Jul 30, 6:50 PM)
Average79 °F66%29.91 "Hg
* Reported Jul 21 9:50 AM — Aug 5 9:50 AM, Ceuta, Weather by CustomWeather, © 2015

Note: Actual official high and low records may vary slightly from our data, if they occured in-between our weather recording intervals... More about our weather records

Advertising

Ceuta weather history for previous 24 hours

 ConditionsComfort  
Time TempWeatherWind HumidityBarometerVisibility
9:50 AM
Wed, Aug 5
75 °FSunny.1 mph69%29.95 "Hg10 mi
8:50 AM73 °FSunny.No wind74%29.95 "Hg10 mi
7:50 AM70 °FClear.1 mph83%29.95 "Hg10 mi
6:50 AM75 °FClear.3 mph65%29.92 "HgN/A
5:50 AM75 °FClear.8 mph74%29.92 "HgN/A
4:50 AM73 °FClear.12 mph78%29.92 "HgN/A
3:50 AM75 °FClear.10 mph74%29.92 "HgN/A
2:50 AM75 °FClear.8 mph74%29.92 "HgN/A
1:50 AM75 °FClear.7 mph74%29.95 "Hg6 mi
12:50 AM75 °FMild.3 mph74%29.95 "HgN/A
11:50 PM
Tue, Aug 4
75 °FMild.1 mph74%N/AN/A
9:50 PM81 °FSunny.9 mph58%29.92 "Hg10 mi
8:50 PM82 °FSunny.16 mph51%29.89 "Hg10 mi
7:50 PM82 °FSunny.18 mph51%29.89 "Hg10 mi
6:50 PM84 °FSunny.18 mph48%29.92 "Hg10 mi
5:50 PM84 °FSunny.16 mph48%29.92 "Hg10 mi
4:50 PM84 °FSunny.16 mph51%29.92 "Hg10 mi
3:50 PM81 °FSunny.18 mph62%29.95 "Hg10 mi
2:50 PM82 °FSunny.16 mph55%29.95 "Hg10 mi
1:50 PM81 °FSunny.16 mph58%29.98 "Hg10 mi
12:50 PM81 °FSunny.10 mph62%29.98 "Hg10 mi
11:50 AM81 °FSunny.8 mph58%29.98 "Hg10 mi
Weather by CustomWeather, © 2015

See weather overviewHow to use our weather pages